sat.trackr.live / text

‹ back to catalog

LEMUR-2-SPECIAL-K

NORAD 48273 · 2021-034F

PAYLOAD ACTIVE UNKNOWN

§ Identity

Operator
Country
US
Launch date
2021-04-29
Launch site
FRGUI
Launch vehicle
Mass (kg)
RCS (m²)

Purposes: earth_obs

External: N2YO · Heavens-Above · Gunter

§ Orbital elements

Epoch: 2026-05-25T04:53:21.756192Z

Period
92.43 min
Inclination
97.5654°
Eccentricity
0.0001792
Mean motion
15.57983322 rev/d
Perigee alt
392.3 km
Apogee alt
394.7 km
Semi-major
6,771.6 km
B*
1.5225e-3
RAAN
230.5157°
Arg perigee
203.9638°
Mean anomaly
156.1534°
Rev number
27,810

§ Raw data

LEMUR-2-SPECIAL-K1 48273U 21034F   26145.20372403  .00115325  00000+0  15225-2 0  99962 48273  97.5654 230.5157 0001792 203.9638 156.1534 15.57983322278103

JSON: /api/v1/satellites/48273 · /tle

For live sub-satellite position, see the globe view (requires WebGL).

§ Visibility from observer

Set your observer location to see the next 7 days of passes ≥ 10°. The values pass through the URL so the page stays shareable.

No JS? Fill the form by hand. The geolocation button needs JavaScript.

§ Radio — SatNOGS DB

ModeDescriptionDownlinkUplink
FM Telemetry 400.552 MHz

1 transmitter · refreshed weekly from db.satnogs.org